Location: ????????
(48.4751°N, 37.6926°E)
Time: 13:36:40
(UTC+00:00)

Cosmos 1833 Rocket - Pass Details

Date: 20 January 2021
Orbit: 833 x 839 km, 71.0° (Epoch: 26 February)

Event Time Altitude Azimuth Distance (km) Brightness Sun altitude
Rises 16:05:56 0° 336° (NNW) 3,392 6.0 -19.0°
Reaches altitude 10° 16:08:43 10° 347° (NNW) 2,455 5.2 -19.4°
Enters shadow 16:13:11 29° 40° (NE) 1,508 3.6 -20.2°
